| time (UTC) | temp F | wind direction | speed knots | gust knots | rain 1hr in | rain 24hr in | rain mn in | humidity % | barometer mb |
| 20260509173044 | 68 | 233 | 0.0 | 4.3 | 0.00 | 0.00 | 0.00 | 45 | 1008.7 |
| 20260509171544 | 69 | 271 | 1.7 | 7.8 | 0.00 | 0.00 | 0.00 | 42 | 1008.7 |
| 20260509170040 | 70 | 234 | 0.9 | 6.1 | 0.00 | 0.00 | 0.00 | 41 | 1008.6 |
| 20260509164536 | 69 | 230 | 2.6 | 7.8 | 0.00 | 0.00 | 0.00 | 42 | 1008.6 |
| 20260509163033 | 67 | 289 | 0.9 | 5.2 | 0.00 | 0.00 | 0.00 | 45 | 1008.9 |
| 20260509161534 | 67 | 248 | 2.6 | 9.6 | 0.00 | 0.00 | 0.00 | 44 | 1009.0 |
| 20260509160028 | 67 | 209 | 3.5 | 8.7 | 0.00 | 0.00 | 0.00 | 44 | 1008.9 |
| 20260509154525 | 67 | 230 | 3.5 | 7.8 | 0.00 | 0.00 | 0.00 | 42 | 1008.9 |
| 20260509153022 | 67 | 153 | 4.3 | 9.6 | 0.00 | 0.00 | 0.00 | 42 | 1009.2 |
| 20260509151518 | 66 | 270 | 3.5 | 7.0 | 0.00 | 0.00 | 0.00 | 43 | 1009.1 |
| 20260509150017 | 66 | 280 | 1.7 | 6.1 | 0.00 | 0.00 | 0.00 | 44 | 1009.2 |
| 20260509144525 | 64 | 240 | 3.5 | 7.0 | 0.00 | 0.00 | 0.00 | 43 | 1009.3 |
| 20260509143008 | 63 | 226 | 3.5 | 7.8 | 0.00 | 0.00 | 0.00 | 45 | 1009.6 |
| 20260509141507 | 62 | 139 | 1.7 | 5.2 | 0.00 | 0.00 | 0.00 | 46 | 1009.7 |
| 20260509140001 | 61 | 176 | 3.5 | 7.8 | 0.00 | 0.00 | 0.00 | 46 | 1009.8 |
| 20260509134601 | 60 | 250 | 1.7 | 5.2 | 0.00 | 0.00 | 0.00 | 47 | 1009.7 |
| 20260509133051 | 58 | 278 | 0.0 | 3.5 | 0.00 | 0.00 | 0.00 | 49 | 1009.8 |
| 20260509131547 | 57 | 246 | 0.0 | 5.2 | 0.00 | 0.00 | 0.00 | 49 | 1009.8 |
| 20260509130045 | 57 | 265 | 0.0 | 4.3 | 0.00 | 0.00 | 0.00 | 49 | 1009.8 |
| 20260509124639 | 57 | 218 | 0.0 | 6.1 | 0.00 | 0.00 | 0.00 | 49 | 1009.8 |
| 20260509123036 | 56 | 229 | 0.9 | 3.5 | 0.00 | 0.00 | 0.00 | 50 | 1010.0 |
| 20260509121537 | 56 | 209 | 0.0 | 1.7 | 0.00 | 0.00 | 0.00 | 50 | 1009.9 |
| 20260509120031 | 56 | 238 | 0.0 | 1.7 | 0.00 | 0.00 | 0.00 | 49 | 1010.0 |
| 20260509114529 | 56 | 220 | 0.0 | 1.7 | 0.00 | 0.00 | 0.00 | 49 | 1009.8 |
| 20260509113028 | 55 | 223 | 0.0 | 3.5 | 0.00 | 0.00 | 0.00 | 48 | 1009.8 |
| 20260509111525 | 55 | 229 | 0.0 | 1.7 | 0.00 | 0.00 | 0.00 | 49 | 1009.7 |
| 20260509110020 | 0 | 0.0 | 0.0 | 0.00 | 0.00 | 0.00 | 1009.6 | ||
| 20260509104525 | 0 | 0.0 | 0.0 | 0.00 | 0.00 | 0.00 | 1009.6 | ||
| 20260509103009 | 0 | 0.0 | 0.0 | 0.00 | 0.00 | 0.00 | 1009.4 | ||
| 20260509101504 | 0 | 212 | 0.0 | 2.6 | 0.00 | 0.00 | 0.00 | 1009.4 | |
| 20260509100004 | 56 | 247 | 0.9 | 3.5 | 0.00 | 0.00 | 0.00 | 46 | 1009.3 |
| 20260509094600 | 56 | 251 | 0.0 | 1.7 | 0.00 | 0.00 | 0.00 | 46 | 1009.3 |
| 20260509094500 | 56 | 259 | 0.0 | 1.7 | 0.00 | 0.00 | 0.00 | 46 | 1009.3 |
| 20260509093059 | 56 | 250 | 0.9 | 3.5 | 0.00 | 0.00 | 0.00 | 46 | 1009.4 |
| 20260509091555 | 55 | 253 | 0.0 | 3.5 | 0.00 | 0.00 | 0.00 | 46 | 1009.6 |
| 20260509090052 | 55 | 220 | 0.9 | 4.3 | 0.00 | 0.00 | 0.00 | 46 | 1009.7 |
| 20260509084554 | 55 | 219 | 0.9 | 5.2 | 0.00 | 0.00 | 0.00 | 47 | 1009.7 |
| 20260509083046 | 55 | 289 | 0.9 | 6.1 | 0.00 | 0.00 | 0.00 | 46 | 1009.7 |
| 20260509081545 | 55 | 200 | 0.9 | 6.1 | 0.00 | 0.00 | 0.00 | 46 | 1009.8 |
| 20260509080051 | 55 | 180 | 0.9 | 6.1 | 0.00 | 0.00 | 0.00 | 47 | 1010.1 |
| 20260509074539 | 55 | 174 | 0.9 | 5.2 | 0.00 | 0.00 | 0.00 | 47 | 1010.2 |
| 20260509073039 | 55 | 175 | 1.7 | 3.5 | 0.00 | 0.00 | 0.00 | 46 | 1010.2 |
| 20260509071533 | 55 | 200 | 0.0 | 4.3 | 0.00 | 0.00 | 0.00 | 45 | 1010.2 |
| 20260509070031 | 56 | 217 | 0.9 | 4.3 | 0.00 | 0.00 | 0.00 | 44 | 1010.1 |
| 20260509064528 | 56 | 196 | 0.9 | 6.1 | 0.00 | 0.00 | 0.00 | 44 | 1010.1 |
| 20260509063026 | 56 | 210 | 1.7 | 4.3 | 0.00 | 0.00 | 0.00 | 44 | 1010.3 |
| 20260509061524 | 56 | 231 | 2.6 | 5.2 | 0.00 | 0.00 | 0.00 | 44 | 1010.4 |
| 20260509060024 | 55 | 246 | 0.9 | 4.3 | 0.00 | 0.00 | 0.00 | 45 | 1010.6 |
| 20260509054519 | 55 | 229 | 0.0 | 0.9 | 0.00 | 0.00 | 0.00 | 45 | 1010.6 |
| 20260509053028 | 56 | 222 | 0.0 | 2.6 | 0.00 | 0.00 | 0.00 | 44 | 1010.5 |
| 20260509051521 | 56 | 257 | 0.0 | 2.6 | 0.00 | 0.00 | 0.00 | 44 | 1010.7 |
| 20260509050016 | 56 | 274 | 1.7 | 5.2 | 0.00 | 0.00 | 0.00 | 43 | 1010.6 |
| 20260509044509 | 56 | 228 | 0.0 | 4.3 | 0.00 | 0.00 | 0.00 | 43 | 1010.4 |
| 20260509043009 | 56 | 233 | 0.0 | 2.6 | 0.00 | 0.00 | 0.00 | 43 | 1010.6 |
| 20260509041509 | 56 | 239 | 0.0 | 3.5 | 0.00 | 0.00 | 0.00 | 43 | 1010.7 |
| 20260509040101 | 56 | 224 | 0.9 | 2.6 | 0.00 | 0.00 | 0.00 | 43 | 1010.8 |
| 20260509034556 | 56 | 247 | 0.0 | 2.6 | 0.00 | 0.00 | 0.00 | 43 | 1010.7 |
| 20260509033100 | 56 | 242 | 0.0 | 0.9 | 0.00 | 0.00 | 0.00 | 44 | 1010.7 |
| 20260509031551 | 56 | 221 | 0.0 | 0.9 | 0.00 | 0.00 | 0.00 | 43 | 1010.8 |
| 20260509030051 | 57 | 238 | 0.0 | 0.9 | 0.00 | 0.00 | 0.00 | 43 | 1011.0 |
| 20260509024548 | 57 | 236 | 0.0 | 2.6 | 0.00 | 0.00 | 0.00 | 42 | 1011.0 |
| 20260509023046 | 58 | 238 | 0.0 | 0.9 | 0.00 | 0.00 | 0.00 | 42 | 1010.9 |
| 20260509021544 | 58 | 222 | 0.0 | 0.9 | 0.00 | 0.00 | 0.00 | 42 | 1010.9 |
| 20260509020043 | 58 | 229 | 0.0 | 1.7 | 0.00 | 0.00 | 0.00 | 41 | 1010.8 |
| 20260509014545 | 59 | 207 | 0.0 | 0.9 | 0.00 | 0.00 | 0.00 | 39 | 1010.6 |
| 20260509013043 | 60 | 148 | 0.0 | 0.9 | 0.00 | 0.00 | 0.00 | 38 | 1010.6 |
| 20260509011541 | 60 | 236 | 0.0 | 0.0 | 0.00 | 0.00 | 0.00 | 37 | 1010.6 |
| 20260509010035 | 62 | 236 | 0.0 | 0.0 | 0.00 | 0.00 | 0.00 | 35 | 1010.6 |
| 20260509004532 | 63 | 236 | 0.0 | 0.9 | 0.00 | 0.00 | 0.00 | 33 | 1010.5 |
| 20260509003034 | 64 | 240 | 0.0 | 0.9 | 0.00 | 0.00 | 0.00 | 31 | 1010.3 |
| 20260509001531 | 66 | 245 | 0.0 | 4.3 | 0.00 | 0.00 | 0.00 | 29 | 1010.2 |
| 20260509000028 | 67 | 265 | 1.7 | 6.1 | 0.00 | 0.00 | 0.00 | 28 | 1010.1 |
| 20260508234526 | 67 | 229 | 0.9 | 7.8 | 0.00 | 0.00 | 0.00 | 28 | 1010.1 |
| 20260508233029 | 67 | 260 | 0.9 | 6.1 | 0.00 | 0.00 | 0.00 | 27 | 1010.0 |
| 20260508231521 | 68 | 172 | 2.6 | 7.0 | 0.00 | 0.00 | 0.00 | 27 | 1009.9 |
| 20260508230020 | 68 | 229 | 1.7 | 7.0 | 0.00 | 0.00 | 0.00 | 27 | 1009.9 |
| 20260508224518 | 69 | 159 | 1.7 | 6.1 | 0.00 | 0.00 | 0.00 | 26 | 1009.8 |
| 20260508223023 | 70 | 229 | 0.9 | 6.1 | 0.00 | 0.00 | 0.00 | 24 | 1009.5 |
| 20260508221514 | 71 | 205 | 0.9 | 5.2 | 0.00 | 0.00 | 0.00 | 22 | 1009.7 |
| 20260508220011 | 73 | 230 | 1.7 | 6.1 | 0.00 | 0.00 | 0.00 | 18 | 1009.7 |
| 20260508214506 | 73 | 213 | 0.9 | 7.0 | 0.00 | 0.00 | 0.00 | 18 | 1009.8 |
| 20260508213005 | 71 | 227 | 0.9 | 5.2 | 0.00 | 0.00 | 0.00 | 20 | 1009.8 |
| 20260508211502 | 70 | 282 | 0.9 | 4.3 | 0.00 | 0.00 | 0.00 | 21 | 1009.9 |
| 20260508210101 | 70 | 169 | 0.0 | 7.0 | 0.00 | 0.00 | 0.00 | 19 | 1009.8 |
| 20260508204556 | 71 | 219 | 3.5 | 8.7 | 0.00 | 0.00 | 0.00 | 18 | 1009.9 |
| 20260508203057 | 71 | 209 | 2.6 | 10.4 | 0.00 | 0.00 | 0.00 | 18 | 1010.0 |
| 20260508201551 | 71 | 251 | 1.7 | 7.0 | 0.00 | 0.00 | 0.00 | 21 | 1010.1 |
| 20260508200059 | 72 | 237 | 3.5 | 7.8 | 0.00 | 0.00 | 0.00 | 17 | 1010.3 |
| 20260508194545 | 72 | 256 | 0.9 | 10.4 | 0.00 | 0.00 | 0.00 | 18 | 1010.4 |
| 20260508193044 | 72 | 292 | 1.7 | 5.2 | 0.00 | 0.00 | 0.00 | 18 | 1010.8 |
| 20260508191548 | 73 | 304 | 1.7 | 6.1 | 0.00 | 0.00 | 0.00 | 17 | 1011.1 |
| 20260508190036 | 71 | 257 | 2.6 | 9.6 | 0.00 | 0.00 | 0.00 | 18 | 1011.2 |
| 20260508184533 | 71 | 278 | 0.9 | 7.0 | 0.00 | 0.00 | 0.00 | 19 | 1011.5 |
| 20260508183031 | 70 | 281 | 4.3 | 13.0 | 0.00 | 0.00 | 0.00 | 21 | 1011.8 |
| 20260508181527 | 70 | 257 | 2.6 | 9.6 | 0.00 | 0.00 | 0.00 | 20 | 1011.9 |
| 20260508180024 | 69 | 221 | 2.6 | 11.3 | 0.00 | 0.00 | 0.00 | 20 | 1011.9 |
| 20260508174528 | 69 | 283 | 5.2 | 8.7 | 0.00 | 0.00 | 0.00 | 21 | 1012.2 |